Location: Poughquag
(41.6090°N, 73.6820°W)
Time: 14:32:51
(UTC-05:00)

Tiangong 2 - Visible Passes

Search period start: 19 November 2017 00:00
Search period end: 29 November 2017 00:00
Orbit: 386 x 391 km, 42.8° (Epoch: 19 November)

Date Brightness Start Highest point End Pass type
(mag) Time Alt. Az. Time Alt. Az. Time Alt. Az.
25 Nov 4.3 05:44:16 10° SSE 05:45:32 12° SE 05:46:48 10° ESE visible
26 Nov 2.8 06:20:50 10° SW 06:23:46 33° SSE 06:26:42 10° E visible
27 Nov 3.5 05:23:12 10° SSW 05:25:40 21° SSE 05:28:11 10° E visible
28 Nov 4.2 04:28:06 12° SE 04:28:06 12° SE 04:29:08 10° ESE visible
28 Nov 1.7 06:00:53 10° WSW 06:04:01 55° SSE 06:07:09 10° E visible
